Simultaneous Nadir Overpasses (SNOs) Predictions

Prediction of SNOs between NOAA-19 and NPP Satellite Orbit:

Table of predicted SNOs for the next 14.0 days since TLE Epoch: 6/6/2014
Index Date (NOAA-19) Time (NOAA-19) Lat,Lon (NOAA-19) SZA (NOAA-19 ) Date (NPP) Time (NPP) Lat,Lon (NPP) SZA (NPP ) Distance(km) Time Diff (sec)
1 06/16/2014 00:53:32 -81.01, -67.27 118.42 06/16/2014 00:54:37 -81.01, -67.18 118.47 1.52 65
2 06/16/2014 01:44:36 81.00, 100.28 61.54 06/16/2014 01:45:22 81.01, 100.10 61.54 3.18 46
3 06/16/2014 02:35:35 -81.01, -92.55 118.46 06/16/2014 02:36:07 -81.01, -92.56 118.47 0.32 32
4 06/16/2014 03:26:39 81.00, 74.99 61.50 06/16/2014 03:26:51 80.99, 75.09 61.48 1.69 12
5 06/16/2014 04:17:37 -80.99,-117.46 118.55 06/16/2014 04:17:36 -80.99,-117.58 118.53 2.07 1
6 06/16/2014
